, AK

(GMT )
Shemya

Weather History for PASY - December, 2012

Change the Weather History Date:

Saturday, December 1, 2012

  Actual Average Record
Temperature  
Mean Temperature 37 °F -  
Max Temperature 39 °F 37 °F 44 °F (1967)
Min Temperature 35 °F 31 °F 18 °F (1959)
Degree Days  
Heating Degree Days 28    
Moisture  
Dew Point 34 °F    
Average Humidity 81    
Maximum Humidity 96    
Minimum Humidity 67    
Precipitation  
Precipitation 0.00 in - - ()
Sea Level Pressure  
Sea Level Pressure 30.24 in    
Wind  
Wind Speed 15 mph (ENE)    
Max Wind Speed 26 mph    
Max Gust Speed 26 mph    
Visibility 10 miles    
Events      
Averages and records for this station are not official NWS values.
T = Trace of Precipitation, MM = Missing Value Source: NWS Daily Summary

Daily Weather History Graph

Daily Weather History Graph

Search for Another Location

Airport or City:

Trip Planner

Search our weather history database for the weather conditions in past years. The results will help you decide how hot, cold, wet, or windy it might be!

Date:

Astronomy

Nov. 30, 2012 Rise Set
Actual Time 10:12 AM HST 6:12 PM HST
Civil Twilight 9:31 AM HST 6:52 PM HST
Nautical Twilight 8:48 AM HST 7:36 PM HST
Astronomical Twilight 8:06 AM HST 8:17 PM HST
Moon 9:25 PM HST (12/1) 12:29 PM HST (12/1)
Length of Visible Light 9h 21m
Length of Day
8h 00m
Waning Gibbous, 90% of the Moon is Illuminated
Dec 1
Waning Gibbous
Dec 6
Last Quarter
Dec 12
New
Dec 19
First Quarter
Dec 28
Full

Hourly Weather History & Observations

Time (HST) Temp. Windchill Dew Point Humidity Pressure Visibility Wind Dir Wind Speed Gust Speed Precip Events Conditions
12:56 AM 37.0 °F 29.3 °F 36.0 °F 96% 30.31 in 10.0 mi North 11.5 mph - N/A   Overcast
1:56 AM 37.0 °F 28.1 °F 35.1 °F 93% 30.28 in 10.0 mi NNE 15.0 mph - N/A   Scattered Clouds
2:03 AM 37.4 °F 29.3 °F 35.6 °F 93% 30.28 in 10.0 mi North 12.7 mph - N/A   Mostly Cloudy
2:56 AM 39.0 °F 31.4 °F 36.0 °F 89% 30.29 in 10.0 mi North 12.7 mph - N/A   Overcast
3:56 AM 39.0 °F 32.8 °F 36.0 °F 89% 30.29 in 10.0 mi North 9.2 mph - N/A   Overcast
4:49 AM 37.4 °F 30.3 °F 35.6 °F 93% 30.29 in 10.0 mi NNE 10.4 mph - N/A   Scattered Clouds
4:56 AM 39.0 °F 32.3 °F 36.0 °F 89% 30.30 in 10.0 mi NE 10.4 mph - N/A   Mostly Cloudy
5:37 AM 39.2 °F 32.0 °F 37.4 °F 93% 30.28 in 10.0 mi NNE 11.5 mph - N/A   Overcast
5:56 AM 39.9 °F 32.5 °F 36.0 °F 86% 30.28 in 10.0 mi NNE 12.7 mph - N/A   Overcast
6:10 AM 39.2 °F 31.6 °F 35.6 °F 87% 30.27 in 10.0 mi NE 12.7 mph - N/A   Overcast
6:39 AM 39.2 °F 30.8 °F 35.6 °F 87% 30.25 in 10.0 mi ENE 15.0 mph - N/A   Overcast
6:56 AM 39.0 °F 29.9 °F 36.0 °F 89% 30.25 in 10.0 mi ENE 17.3 mph - N/A   Overcast
7:56 AM 39.0 °F 31.8 °F 33.1 °F 79% 30.26 in 10.0 mi ENE 11.5 mph - N/A   Overcast
8:56 AM 39.0 °F 30.3 °F 32.0 °F 76% 30.26 in 10.0 mi East 16.1 mph - N/A   Overcast
9:56 AM 39.0 °F 30.3 °F 32.0 °F 76% 30.28 in 10.0 mi East 16.1 mph - N/A   Overcast
10:56 AM 37.9 °F 30.5 °F 32.0 °F 79% 30.29 in 10.0 mi ENE 11.5 mph - N/A   Overcast
11:56 AM 39.0 °F 30.6 °F 32.0 °F 76% 30.29 in 10.0 mi ENE 15.0 mph - N/A   Overcast
12:56 PM 39.0 °F 30.3 °F 32.0 °F 76% 30.27 in 10.0 mi ENE 16.1 mph - N/A   Overcast
1:56 PM 39.0 °F 30.3 °F 32.0 °F 76% 30.24 in 10.0 mi East 16.1 mph 23.0 mph N/A   Overcast
2:56 PM 39.0 °F 29.0 °F 32.0 °F 76% 30.22 in 10.0 mi East 20.7 mph - N/A   Overcast
3:56 PM 39.0 °F 29.9 °F 32.0 °F 76% 30.21 in 10.0 mi ESE 17.3 mph - N/A   Overcast
4:56 PM 39.0 °F 29.3 °F 30.9 °F 73% 30.21 in 10.0 mi ESE 19.6 mph - N/A   Overcast
5:56 PM 39.0 °F 29.0 °F 32.0 °F 76% 30.21 in 10.0 mi East 20.7 mph - N/A   Overcast
6:56 PM 39.0 °F 29.6 °F 30.9 °F 73% 30.21 in 10.0 mi ESE 18.4 mph - N/A   Overcast
7:56 PM 39.0 °F 28.5 °F 32.0 °F 76% 30.18 in 10.0 mi ESE 23.0 mph 26.5 mph N/A   Overcast
8:56 PM 39.9 °F 29.7 °F 33.1 °F 77% 30.16 in 10.0 mi ESE 23.0 mph - N/A   Overcast
9:56 PM 39.0 °F 28.0 °F 32.0 °F 76% 30.15 in 10.0 mi ESE 25.3 mph - N/A   Overcast
10:56 PM 39.9 °F 29.0 °F 33.1 °F 77% 30.14 in 10.0 mi ESE 26.5 mph - N/A   Overcast
11:56 PM 39.9 °F 29.5 °F 34.0 °F 79% 30.12 in 10.0 mi ESE 24.2 mph - N/A   Overcast